Weather in Vedenye

Russia / Kostroma Oblast     58°48′19″N   46°53′24″E
temp.,
°C
wind,
m/s
gust,
m/s
humid.,
%
clouds,
%
prec.,
mm/h
press.,
hPa
HPBL,
m
21 january, thu
thu2100:00−18w239984 0.0 101362
03:00−19w259987 0.0 101393
06:00−19w2599100 0.0 1013115
09:00−20w2598100 0.0 1013121
12:00−16w2593100 0.0 1014256
15:00−16w229699 0.0 101488
18:00−19wnw229848 0.0 101520
21:00−21nnw229824 0.0 101520
22 january, fri
fri2200:00−23n129816 0.0 101620
03:00−25n129810 0.0 101719
06:00−26nne129755 0.0 101819
09:00−24ene129678 0.0 102030
12:00−21ese139398 0.0 1020202
15:00−20ese259596 0.0 1021229
18:00−21se379599 0.0 1021243
21:00−20se499499 0.0 1022267
23 january, sat
sat2300:00−19se4996100 0.2 1021330
03:00−18se41196100 0.6 1019345
06:00−16se4995100 1.2 1018424
09:00−15sse41094100 2.5 1017402
12:00−12sse4894100 0.6 1015334
15:00−11se3694100 0.9 1014257
18:00−10ese3695100 0.3 1014173
21:00−7ese2496100 0.6 1013126
24 january, sun
sun2400:00−2se3498100 0.9 1012131
03:00+1ssw3999100 2.0 1012303
06:00+1ssw3899100 0.8 1012214
09:00+1ssw3899100 1.4 1012263
12:00+2sw3899100 0.3 1013248
15:00+1ssw3799100 0.8 1014212
18:00+1ssw2899100 0.7 1015236
21:00+1ssw2898100 0.8 1016216
25 january, mon
mon2500:00+1ssw3899100 0.2 1016264
03:00+1s3899100 0.2 1016256
06:00+1s2798100 0.1 1016242
09:00+1s3897100 0.5 1017308
12:00+1s41097100 0.4 1017432
15:00+1ssw41097100 0.5 1017503
18:00−1s41094100 0.2 1018497
21:00−2s3897100 0.6 1018416